Tracking 25620 objects as of 18-May-2022
HD Live streaming from Space Station
objects crossing your sky now

COSMOS 2251 DEB

Track COSMOS 2251 DEB now!
10-day predictions


NORAD ID: 33782
Int'l Code: 1993-036X
Perigee: 764.3 km
Apogee: 796.9 km
Inclination: 74.0 °
Period: 100.3 minutes
Semi major axis: 7151 km
RCS: 0.035 m2 (small)
Launch date: June 16, 1993
Source: Commonwealth of Independent States (former USSR) (CIS)
Launch site: PLESETSK MISSILE AND SPACE COMPLEX (PKMTR)

Note: This is SATELLITE DEBRIS
aabbcc
Your satellite tracking list
Your tracking list is empty




NASA's NSSDC Master Catalog

Two Line Element Set (TLE):
1 33782U 93036X   22137.77577844  .00000865  00000-0  30896-3 0  9996
2 33782  74.0338 159.8001 0022773 191.1693 284.4138 14.35479613693949
Source of the keplerian elements: AFSPC